Fredericksburg, TX

9:49 PM CDT on May 21, 2018 (GMT -0500)
Fredericksburg

Weather History for KT82 - May, 2014

Change the Weather History Date:

Saturday, May 17, 2014

  Actual Average (KSAT) Record (KSAT)
Temperature  
Mean Temperature 71 °F -  
Max Temperature 84 °F 85 °F 97 °F (2003)
Min Temperature 58 °F 65 °F 49 °F (1945)
Cooling Degree Days 6    
Growing Degree Days 21 (Base 50)    
Moisture  
Dew Point 52 °F    
Average Humidity 52    
Maximum Humidity 79    
Minimum Humidity 30    
Precipitation  
Precipitation 0.00 in - - ()
Sea Level Pressure  
Sea Level Pressure 29.99 in    
Wind  
Wind Speed 10 mph (South)    
Max Wind Speed 20 mph    
Max Gust Speed 25 mph    
Visibility 10 miles    
Events      
Averages and records for this station are not official NWS values.
T = Trace of Precipitation, MM = Missing Value Source: NWS Daily Summary

Daily Weather History Graph

Daily Weather History Graph

Search for Another Location

Airport or City:

Astronomy

May. 17, 2014 Rise Set
Actual Time 6:40 AM CDT 8:23 PM CDT
Civil Twilight 6:14 AM CDT 8:50 PM CDT
Nautical Twilight 5:42 AM CDT 9:22 PM CDT
Astronomical Twilight 5:09 AM CDT 9:55 PM CDT
Moon 11:27 PM CDT (5/17) 9:24 AM CDT (5/17)
Length of Visible Light 14h 36m
Length of Day
13h 43m
Waning Gibbous, 89% of the Moon is Illuminated
May 17
Waning Gibbous
May 21
Last Quarter
May 28
New
Jun 5
First Quarter
Jun 12
Full

Hourly Weather History & Observations

Time (CDT) Temp. Heat Index Dew Point Humidity Pressure Visibility Wind Dir Wind Speed Gust Speed Precip Events Conditions
12:15 AM 68.0 °F - 35.2 °F 30% 30.02 in 10.0 mi South 5.8 mph - N/A   Unknown
12:35 AM 68.5 °F - 36.3 °F 31% 30.02 in 10.0 mi South 4.6 mph - N/A   Unknown
12:55 AM 67.3 °F - 38.1 °F 34% 30.02 in 10.0 mi South 8.1 mph - N/A   Unknown
1:15 AM 66.2 °F - 40.6 °F 39% 30.02 in 10.0 mi South 6.9 mph - N/A   Unknown
1:35 AM 65.8 °F - 43.9 °F 45% 30.02 in 10.0 mi South 6.9 mph - N/A   Unknown
1:55 AM 64.8 °F - 45.9 °F 50% 30.02 in 10.0 mi SSW 5.8 mph - N/A   Unknown
2:15 AM 64.2 °F - 47.7 °F 55% 30.02 in 10.0 mi SSW 9.2 mph 16.1 mph N/A   Unknown
2:35 AM 63.9 °F - 49.5 °F 59% 30.01 in 10.0 mi SSW 8.1 mph - N/A   Unknown
2:55 AM 63.3 °F - 49.8 °F 61% 30.00 in 10.0 mi SSW 9.2 mph - N/A   Unknown
3:15 AM 63.0 °F - 50.4 °F 63% 30.00 in 10.0 mi South 10.4 mph - N/A   Unknown
3:35 AM 61.9 °F - 51.3 °F 68% 30.00 in 10.0 mi SSW 9.2 mph - N/A   Unknown
3:55 AM 61.5 °F - 51.4 °F 69% 30.00 in 10.0 mi SSW 5.8 mph - N/A   Unknown
4:15 AM 61.2 °F - 49.8 °F 66% 30.00 in 10.0 mi SSW 10.4 mph - N/A   Unknown
4:35 AM 60.8 °F - 47.8 °F 62% 29.99 in 10.0 mi SSW 10.4 mph 16.1 mph N/A   Unknown
5:15 AM 60.1 °F - 46.6 °F 61% 29.99 in 10.0 mi SSW 12.7 mph - N/A   Unknown
5:35 AM 59.9 °F - 47.8 °F 64% 29.99 in 10.0 mi SSW 12.7 mph 18.4 mph N/A   Unknown
5:55 AM 59.0 °F - 48.6 °F 68% 29.99 in 10.0 mi SSW 11.5 mph - N/A   Unknown
6:15 AM 59.0 °F - 48.4 °F 68% 30.00 in 10.0 mi SSW 10.4 mph 19.6 mph N/A   Unknown
6:35 AM 58.6 °F - 48.7 °F 70% 30.00 in 10.0 mi SSW 11.5 mph - N/A   Unknown
6:55 AM 58.6 °F - 50.0 °F 73% 30.01 in 10.0 mi SSW 13.8 mph 17.3 mph N/A   Unknown
7:15 AM 59.0 °F - 51.4 °F 76% 30.02 in 10.0 mi SSW 11.5 mph 19.6 mph N/A   Unknown
7:35 AM 59.4 °F - 52.7 °F 79% 30.02 in 10.0 mi SSW 13.8 mph 20.7 mph N/A   Unknown
7:55 AM 60.1 °F - 53.6 °F 79% 30.02 in 10.0 mi SSW 13.8 mph - N/A   Unknown
8:15 AM 61.7 °F - 54.1 °F 76% 30.02 in 10.0 mi SSW 13.8 mph 20.7 mph N/A   Unknown
8:35 AM 62.2 °F - 54.5 °F 76% 30.02 in 10.0 mi SSW 18.4 mph 24.2 mph N/A   Unknown
8:55 AM 63.9 °F - 55.4 °F 74% 30.02 in 10.0 mi SSW 15.0 mph - N/A   Unknown
9:15 AM 65.3 °F - 55.4 °F 70% 30.02 in 10.0 mi SSW 18.4 mph 24.2 mph N/A   Unknown
9:35 AM 65.7 °F - 55.4 °F 69% 30.02 in 10.0 mi SW 17.3 mph - N/A   Unknown
9:55 AM 67.6 °F - 55.9 °F 66% 30.02 in 10.0 mi SSW 15.0 mph - N/A   Unknown
10:15 AM 68.2 °F - 55.8 °F 64% 30.02 in 10.0 mi SSW 19.6 mph 23.0 mph N/A   Unknown
10:35 AM 70.3 °F - 56.3 °F 61% 30.01 in 10.0 mi SSW 18.4 mph 21.9 mph N/A   Unknown
10:55 AM 71.6 °F - 56.3 °F 58% 30.01 in 10.0 mi SSW 16.1 mph - N/A   Unknown
11:15 AM 73.4 °F - 55.8 °F 54% 30.00 in 10.0 mi SSW 18.4 mph 23.0 mph N/A   Unknown
11:35 AM 74.5 °F - 56.1 °F 53% 30.00 in 10.0 mi South 17.3 mph 25.3 mph N/A   Unknown
11:55 AM 75.4 °F - 55.0 °F 49% 30.00 in 10.0 mi South 16.1 mph - N/A   Unknown
12:15 PM 77.0 °F - 55.4 °F 47% 30.00 in 10.0 mi SSW 11.5 mph 21.9 mph N/A   Unknown
12:35 PM 77.7 °F - 54.3 °F 44% 30.00 in 10.0 mi SSW 16.1 mph 24.2 mph N/A   Unknown
12:55 PM 79.0 °F - 54.9 °F 43% 30.00 in 10.0 mi South 13.8 mph 19.6 mph N/A   Unknown
1:15 PM 79.9 °F - 54.9 °F 42% 29.99 in 10.0 mi South 12.7 mph 21.9 mph N/A   Unknown
1:35 PM 81.1 °F - 52.5 °F 37% 29.99 in 10.0 mi SSW 13.8 mph 21.9 mph N/A   Unknown
1:55 PM 81.0 °F 80.5 °F 53.8 °F 39% 29.98 in 10.0 mi South 12.7 mph 21.9 mph N/A   Unknown
2:15 PM 81.9 °F 81.0 °F 53.2 °F 37% 29.98 in 10.0 mi South 12.7 mph - N/A   Unknown
2:35 PM 82.6 °F 81.6 °F 54.1 °F 37% 29.98 in 10.0 mi South 11.5 mph 17.3 mph N/A   Unknown
2:55 PM 82.8 °F 81.6 °F 53.2 °F 36% 29.98 in 10.0 mi South 11.5 mph 20.7 mph N/A   Unknown
3:15 PM 83.3 °F 82.1 °F 53.6 °F 36% 29.97 in 10.0 mi SSE 10.4 mph 16.1 mph N/A   Unknown
3:35 PM 83.7 °F 82.3 °F 53.4 °F 35% 29.97 in 10.0 mi South 11.5 mph 17.3 mph N/A   Unknown
3:55 PM 83.5 °F - 52.7 °F 34% 29.96 in 10.0 mi South 13.8 mph 18.4 mph N/A   Unknown
4:15 PM 84.0 °F - 52.7 °F 34% 29.95 in 10.0 mi South 15.0 mph 21.9 mph N/A   Unknown
4:35 PM 84.0 °F - 52.2 °F 33% 29.94 in 10.0 mi South 12.7 mph 19.6 mph N/A   Unknown
4:55 PM 84.2 °F - 50.9 °F 32% 29.94 in 10.0 mi South 15.0 mph 19.6 mph N/A   Unknown
5:15 PM 84.4 °F - 51.1 °F 32% 29.94 in 10.0 mi South 9.2 mph 19.6 mph N/A   Unknown
5:35 PM 83.7 °F - 51.4 °F 33% 29.94 in 10.0 mi SSE 10.4 mph 23.0 mph N/A   Unknown
5:55 PM 82.9 °F - 51.8 °F 34% 29.93 in 10.0 mi SSE 11.5 mph 19.6 mph N/A   Unknown
6:15 PM 82.8 °F - 51.1 °F 33% 29.93 in 10.0 mi SSE 11.5 mph 18.4 mph N/A   Unknown
6:35 PM 81.9 °F - 50.5 °F 34% 29.93 in 10.0 mi South 13.8 mph 21.9 mph N/A   Unknown
6:55 PM 81.5 °F - 51.4 °F 35% 29.93 in 10.0 mi South 11.5 mph - N/A   Unknown
7:15 PM 80.6 °F - 52.0 °F 37% 29.93 in 10.0 mi South 9.2 mph 18.4 mph N/A   Unknown
7:35 PM 79.5 °F - 52.0 °F 38% 29.94 in 10.0 mi SSE 10.4 mph 19.6 mph N/A   Unknown
7:55 PM 78.3 °F - 52.3 °F 40% 29.94 in 10.0 mi South 9.2 mph - N/A   Unknown
8:15 PM 77.4 °F - 51.6 °F 41% 29.94 in 10.0 mi SSE 5.8 mph - N/A   Unknown
8:35 PM 76.1 °F - 51.4 °F 42% 29.95 in 10.0 mi SSE 5.8 mph - N/A   Unknown
8:55 PM 75.2 °F - 51.1 °F 43% 29.96 in 10.0 mi SSE 4.6 mph - N/A   Unknown
9:15 PM 74.1 °F - 52.2 °F 46% 29.97 in 10.0 mi SSE 6.9 mph - N/A   Unknown
9:35 PM 73.6 °F - 53.6 °F 50% 29.97 in 10.0 mi SSE 5.8 mph - N/A   Unknown
9:55 PM 72.7 °F - 54.5 °F 53% 29.98 in 10.0 mi SSE 6.9 mph - N/A   Unknown
10:15 PM 72.0 °F - 55.4 °F 56% 29.99 in 10.0 mi SSE 6.9 mph - N/A   Unknown
10:35 PM 70.7 °F - 55.8 °F 59% 30.00 in 10.0 mi SE 5.8 mph - N/A   Unknown
11:15 PM 69.4 °F - 57.2 °F 65% 30.02 in 10.0 mi SSE 8.1 mph - N/A   Unknown
11:35 PM 68.5 °F - 57.4 °F 67% 30.02 in 10.0 mi SSE 6.9 mph - N/A   Unknown
11:55 PM 68.0 °F - 57.7 °F 70% 30.02 in 10.0 mi SSE 9.2 mph - N/A   Unknown